TimeEST,TemperatureF,Dew PointF,Humidity,Sea Level PressureIn,VisibilityMPH,Wind Direction,Wind SpeedMPH,Gust SpeedMPH,PrecipitationIn,Events,Conditions,WindDirDegrees,DateUTC
12:05 AM,26.6,24.8,93,30.37,7.0,Calm,Calm,-,N/A,,Clear,0,2013-12-01 05:05:00
12:25 AM,26.6,24.8,93,30.36,10.0,Calm,Calm,-,N/A,,Clear,0,2013-12-01 05:25:00
12:45 AM,26.6,24.8,93,30.35,10.0,Calm,Calm,-,N/A,,Clear,0,2013-12-01 05:45:00
1:05 AM,26.6,24.8,93,30.35,10.0,Calm,Calm,-,N/A,,Mostly Cloudy,0,2013-12-01 06:05:00
1:25 AM,26.6,24.8,93,30.34,10.0,Calm,Calm,-,N/A,,Overcast,0,2013-12-01 06:25:00
1:45 AM,26.6,23.0,86,30.33,10.0,Calm,Calm,-,N/A,,Scattered Clouds,0,2013-12-01 06:45:00
2:05 AM,26.6,24.8,93,30.33,10.0,Calm,Calm,-,N/A,,Clear,0,2013-12-01 07:05:00
2:25 AM,26.6,24.8,93,30.33,10.0,Calm,Calm,-,N/A,,Scattered Clouds,0,2013-12-01 07:25:00
2:45 AM,26.6,24.8,93,30.32,10.0,Calm,Calm,-,N/A,,Scattered Clouds,0,2013-12-01 07:45:00
3:05 AM,26.6,24.8,93,30.32,10.0,Calm,Calm,-,N/A,,Scattered Clouds,0,2013-12-01 08:05:00
3:25 AM,26.6,24.8,93,30.32,10.0,Calm,Calm,-,N/A,,Clear,0,2013-12-01 08:25:00
3:45 AM,26.6,24.8,93,30.30,10.0,Calm,Calm,-,N/A,,Scattered Clouds,0,2013-12-01 08:45:00
4:05 AM,26.6,24.8,93,30.30,10.0,Calm,Calm,-,N/A,,Scattered Clouds,0,2013-12-01 09:05:00
4:25 AM,26.6,24.8,93,30.29,10.0,Calm,Calm,-,N/A,,Scattered Clouds,0,2013-12-01 09:25:00
4:45 AM,26.6,23.0,86,30.28,10.0,Calm,Calm,-,N/A,,Scattered Clouds,0,2013-12-01 09:45:00
5:05 AM,24.8,23.0,93,30.28,10.0,Calm,Calm,-,N/A,,Clear,0,2013-12-01 10:05:00
5:25 AM,24.8,24.8,100,30.28,7.0,Calm,Calm,-,N/A,,Clear,0,2013-12-01 10:25:00
5:46 AM,24.8,23.0,93,30.28,10.0,Calm,Calm,-,N/A,,Clear,0,2013-12-01 10:46:00
6:05 AM,24.8,23.0,93,30.28,7.0,Calm,Calm,-,N/A,,Clear,0,2013-12-01 11:05:00
6:25 AM,24.8,23.0,93,30.28,7.0,Calm,Calm,-,N/A,,Clear,0,2013-12-01 11:25:00
6:45 AM,24.8,24.8,100,30.28,7.0,Calm,Calm,-,N/A,,Clear,0,2013-12-01 11:45:00
7:05 AM,24.8,24.8,100,30.28,7.0,Calm,Calm,-,N/A,,Clear,0,2013-12-01 12:05:00
7:25 AM,24.8,24.8,100,30.28,7.0,Calm,Calm,-,N/A,,Clear,0,2013-12-01 12:25:00
7:45 AM,24.8,24.8,100,30.28,5.0,Calm,Calm,-,N/A,,Clear,0,2013-12-01 12:45:00
8:05 AM,24.8,24.8,100,30.27,5.0,Calm,Calm,-,N/A,,Clear,0,2013-12-01 13:05:00
8:25 AM,26.6,24.8,93,30.27,7.0,Calm,Calm,-,N/A,,Clear,0,2013-12-01 13:25:00
8:45 AM,30.2,26.6,86,30.26,10.0,Calm,Calm,-,N/A,,Clear,0,2013-12-01 13:45:00
9:05 AM,33.8,26.6,75,30.26,10.0,Calm,Calm,-,N/A,,Clear,0,2013-12-01 14:05:00
9:25 AM,35.6,26.6,70,30.26,10.0,Calm,Calm,-,N/A,,Clear,0,2013-12-01 14:25:00
9:45 AM,37.4,26.6,65,30.27,10.0,Calm,Calm,-,N/A,,Clear,0,2013-12-01 14:45:00
10:05 AM,39.2,26.6,61,30.27,10.0,Calm,Calm,-,N/A,,Clear,0,2013-12-01 15:05:00
10:25 AM,42.8,26.6,53,30.26,10.0,Calm,Calm,-,N/A,,Clear,0,2013-12-01 15:25:00
10:45 AM,44.6,24.8,46,30.25,10.0,Calm,Calm,-,N/A,,Clear,0,2013-12-01 15:45:00
11:05 AM,46.4,23.0,40,30.24,10.0,Calm,Calm,-,N/A,,Clear,0,2013-12-01 16:05:00
11:25 AM,48.2,23.0,37,30.23,10.0,WSW,5.8,-,N/A,,Clear,250,2013-12-01 16:25:00
11:46 AM,50.0,24.8,37,30.21,10.0,SW,4.6,-,N/A,,Clear,220,2013-12-01 16:46:00
12:05 PM,51.8,24.8,35,30.20,10.0,SSW,5.8,-,N/A,,Clear,210,2013-12-01 17:05:00
12:25 PM,51.8,26.6,38,30.18,10.0,WSW,3.5,-,N/A,,Clear,250,2013-12-01 17:25:00
12:45 PM,53.6,26.6,35,30.16,10.0,Calm,Calm,-,N/A,,Clear,0,2013-12-01 17:45:00
1:05 PM,55.4,28.4,36,30.15,10.0,West,3.5,-,N/A,,Clear,270,2013-12-01 18:05:00
1:25 PM,55.4,28.4,36,30.14,10.0,Calm,Calm,-,N/A,,Clear,0,2013-12-01 18:25:00
1:45 PM,55.4,28.4,36,30.13,10.0,SSW,3.5,-,N/A,,Clear,200,2013-12-01 18:45:00
2:05 PM,57.2,28.4,33,30.11,10.0,SSW,3.5,-,N/A,,Clear,210,2013-12-01 19:05:00
2:25 PM,57.2,28.4,33,30.10,10.0,South,5.8,-,N/A,,Clear,190,2013-12-01 19:25:00
2:45 PM,59.0,30.2,34,30.09,10.0,Calm,Calm,-,N/A,,Clear,0,2013-12-01 19:45:00
3:05 PM,59.0,30.2,34,30.09,10.0,SSW,3.5,-,N/A,,Clear,210,2013-12-01 20:05:00
3:25 PM,60.8,33.8,36,30.08,10.0,Calm,Calm,-,N/A,,Scattered Clouds,0,2013-12-01 20:25:00
3:45 PM,59.0,35.6,42,30.08,10.0,West,6.9,-,N/A,,Clear,260,2013-12-01 20:45:00
4:05 PM,59.0,35.6,42,30.07,10.0,WSW,4.6,-,N/A,,Clear,240,2013-12-01 21:05:00
4:25 PM,57.2,35.6,44,30.07,10.0,WSW,4.6,-,N/A,,Clear,240,2013-12-01 21:25:00
4:46 PM,55.4,35.6,47,30.07,10.0,SW,4.6,-,N/A,,Clear,220,2013-12-01 21:46:00
5:05 PM,53.6,35.6,51,30.06,10.0,SW,3.5,-,N/A,,Clear,230,2013-12-01 22:05:00
5:25 PM,51.8,35.6,54,30.07,10.0,SW,3.5,-,N/A,,Clear,230,2013-12-01 22:25:00
5:45 PM,50.0,35.6,58,30.07,10.0,Calm,Calm,-,N/A,,Clear,0,2013-12-01 22:45:00
6:05 PM,46.4,35.6,66,30.07,10.0,Calm,Calm,-,N/A,,Clear,0,2013-12-01 23:05:00
6:25 PM,46.4,35.6,66,30.06,10.0,Calm,Calm,-,N/A,,Clear,0,2013-12-01 23:25:00
6:45 PM,42.8,35.6,76,30.06,10.0,Calm,Calm,-,N/A,,Clear,0,2013-12-01 23:45:00
7:05 PM,39.2,33.8,81,30.06,10.0,Calm,Calm,-,N/A,,Clear,0,2013-12-02 00:05:00
7:25 PM,39.2,35.6,87,30.06,10.0,Calm,Calm,-,N/A,,Clear,0,2013-12-02 00:25:00
7:45 PM,37.4,33.8,87,30.06,10.0,Calm,Calm,-,N/A,,Clear,0,2013-12-02 00:45:00
8:05 PM,35.6,33.8,93,30.06,10.0,Calm,Calm,-,N/A,,Clear,0,2013-12-02 01:05:00
8:25 PM,35.6,33.8,93,30.05,10.0,Calm,Calm,-,N/A,,Clear,0,2013-12-02 01:25:00
8:45 PM,33.8,32.0,93,30.05,10.0,Calm,Calm,-,N/A,,Clear,0,2013-12-02 01:45:00
9:05 PM,33.8,32.0,93,30.05,10.0,Calm,Calm,-,N/A,,Clear,0,2013-12-02 02:05:00
9:25 PM,33.8,33.8,100,30.05,10.0,Calm,Calm,-,N/A,,Clear,0,2013-12-02 02:25:00
9:45 PM,33.8,32.0,93,30.05,10.0,Calm,Calm,-,N/A,,Clear,0,2013-12-02 02:45:00
10:06 PM,32.0,30.2,93,30.05,10.0,Calm,Calm,-,N/A,,Clear,0,2013-12-02 03:06:00
10:25 PM,30.2,30.2,100,30.04,10.0,Calm,Calm,-,N/A,,Clear,0,2013-12-02 03:25:00
10:45 PM,30.2,30.2,100,30.04,10.0,Calm,Calm,-,N/A,,Clear,0,2013-12-02 03:45:00
11:05 PM,32.0,30.2,93,30.04,10.0,Calm,Calm,-,N/A,,Clear,0,2013-12-02 04:05:00
11:25 PM,30.2,30.2,100,30.04,10.0,Calm,Calm,-,N/A,,Clear,0,2013-12-02 04:25:00
11:45 PM,30.2,30.2,100,30.03,10.0,Calm,Calm,-,N/A,,Clear,0,2013-12-02 04:45:00